Regional Weather Roundup
Issued by NWS Nashville, TN

Current Version | Previous Version | Text Only | Print | Product List | Glossary Off
Versions: 1 2 3 4 5 6 7 8 9 10 11 12 13 14 15 16 17 18 19 20 21 22 23 24 25 26 27 28 29 30 31 32 33 34 35 36 37 38 39 40 41 42 43 44 45 46 47 48 49 50

000
ASUS44 KOHX 280310
RWROHX
MIDDLE TENNESSEE HOURLY WEATHER ROUNDUP
NATIONAL WEATHER SERVICE NASHVILLE TN
900 PM CST THU FEB 27 2020

NOTE: "FAIR" INDICATES FEW OR NO CLOUDS BELOW 12,000 FEET WITH
NO SIGNIFICANT WEATHER AND/OR OBSTRUCTIONS TO VISIBILITY.

* THESE REPORTS ARE NOT UNDER NWS QUALITY CONTROL AND MAY NOT
  REPORT WEATHER SUCH AS PRECIPITATION AND FOG.


TNZ005>011-023>034-057-059-062>066-078-080-280400
...NORTHERN MIDDLE TENNESSEE...

CITY           SKY/WX    TMP DP  RH WIND       PRES   REMARKS
CLARKSVILLE    CLOUDY    41  23  48 SW6       30.16S
CROSSVILLE     FAIR      28  21  75 SW3       30.13S
DICKSON        CLOUDY    39  23  52 W7        30.15S WCI  34
LEBANON        CLOUDY    37  23  56 CALM      30.15F
NASHVILLE      MOCLDY    42  19  39 SW3       30.17F
PORTLAND       CLOUDY    39  21  48 SW3       30.15S
ROCKWOOD       CLEAR     30  19  64 SW5       30.13S WCI  25
SMYRNA         CLOUDY    40  23  50 SW5       30.18F
SPARTA         CLOUDY    30  27  86 SW3       30.15S
SPRINGFIELD    CLOUDY    37  25  60 SW6       30.14S WCI  33
WEST NASHVILLE CLOUDY    41  21  45 SW5       30.16S
$$
TNZ056-058-060-061-075>077-079-093>097-280400
...SOUTHERN MIDDLE TENNESSEE...

CITY           SKY/WX    TMP DP  RH WIND       PRES   REMARKS
COLUMBIA       CLOUDY    39  23  52 SW5       30.16F
FAYETTEVILLE   CLOUDY    37  25  60 SW5       30.18R WCI  34
LAWRENCEBURG   CLOUDY    39  23  52 CALM      30.17F
LEWISBURG      CLOUDY    36  28  75 S5        30.18S WCI  32
MCMINNVILLE    CLOUDY    36  23  60 SW3       30.17R
MURFREESBORO   CLOUDY    41  19  42 SW5       30.16F
PULASKI        CLOUDY    36  30  80 CALM      30.19S
SHELBYVILLE    CLOUDY    37  25  60 SW5       30.18S WCI  34
TULLAHOMA      CLOUDY    34  25  69 SW5       30.17S WCI  30
WINCHESTER     CLOUDY    37  23  56 W5        30.18S WCI  34
$$


...KEY TO REMARKS...
VSB - VISIBILITY IN MILES
WCI - WIND CHILL INDEX
HX  - HEAT INDEX




USA.gov is the U.S. government's official web portal to all federal, state and local government web resources and services.